Regional Weather Roundup
Issued by NWS

Home | Current Version | Previous Version | Text Only | Print | Product List | Glossary On
Versions: 1 2 3 4 5 6 7 8 9 10 11 12 13 14 15 16 17 18 19 20 21 22 23 24 25 26 27 28 29 30 31 32 33 34 35 36 37 38 39 40 41 42 43 44 45 46 47 48 49 50
743
ASUS43 KMPX 271010
RWRMN
WEATHER ROUNDUP FOR MINNESOTA
NATIONAL WEATHER SERVICE TWIN CITIES/CHANHASSEN MN
500 AM CDT SAT MAY 27 2017


NOTE: "FAIR" INDICATES FEW OR NO CLOUDS BELOW 12,000 FEET WITH NO
SIGNIFICANT WEATHER AND/OR OBSTRUCTIONS TO VISIBILITY. N/A MEANS
CURRENT SKY AND/OR WEATHER CONDITIONS ARE NOT AVAILABLE.

MNZ060>063-068>070-271100-
   Twin Cities Metro

CITY           SKY/WX    TMP DP  RH WIND       PRES   REMARKS
TWIN CITIES    CLEAR     56  47  71 CALM      29.87S
ST PAUL        CLEAR     52  50  93 CALM      29.87S
CRYSTAL        CLEAR     50  44  80 CALM      29.86R
BLAINE         CLEAR     52  48  87 CALM      29.86S
LAKEVILLE      CLEAR     48  46  93 CALM      29.88S
EDEN PRAIRIE   CLEAR     54  48  80 CALM      29.86S
SOUTH ST PAUL  CLEAR     55  47  74 CALM      29.86F
LAKE ELMO      FAIR      48  46  93 CALM      29.87S
$$
MNZ001>005-007-008-013>017-022>024-027-028-271100-
   Northwest Minnesota

CITY           SKY/WX    TMP DP  RH WIND       PRES   REMARKS
BEMIDJI        CLOUDY    48  43  81 SW3       29.81F
HALLOCK        MOCLDY    43  39  87 S7        29.74S
ROSEAU         PTCLDY    46  41  81 S7        29.76R
WARROAD        CLOUDY    48  45  87 SW7       29.77R
THIEF RVR FALL CLOUDY    48  41  76 S7        29.79F
CROOKSTON      PTCLDY    46  43  87 S8        29.79S
FOSSTON        CLOUDY    45  39  81 S8        29.82S
DETROIT LAKES  CLOUDY    50  45  81 CALM      29.85S
MOORHEAD       PTCLDY    52  43  71 S5        29.84S
PARK RAPIDS    CLOUDY    47  41  80 W5        29.83S
MAHNOMEN       FAIR      46  42  85 S8        29.82S
$$
MNZ006-009>011-018-025>026-271100-
   North Central Minnesota

CITY           SKY/WX    TMP DP  RH WIND       PRES   REMARKS
BAUDETTE       CLOUDY    45  42  89 SW5       29.77S
FLAG ISLAND    CLOUDY    52  45  76 SW9       29.73S
INTL FALLS     CLOUDY    44  41  89 SW5       29.78R
WASKISH        CLOUDY    50  46  87 CALM      29.79F
BIG FORK       CLOUDY    43  41  93 CALM      29.82R
LONGVILLE      CLOUDY    46  45  93 CALM      29.83S
GRAND RAPIDS   CLOUDY    53  44  71 CALM      29.84R
CRANE LAKE     CLEAR     37  37 100 CALM      29.81R
ORR            CLEAR     50  41  71 CALM      29.78R
COOK           CLEAR     39  39 100 CALM      29.81S
WALKER         FAIR      47  42  83 W3        29.83S
$$
MNZ012-019>021-037-271100-
   Northeast Minnesota

CITY           SKY/WX    TMP DP  RH WIND       PRES   REMARKS
DULUTH         PTCLDY    49  44  83 W6        29.82R
ELY            CLEAR     45  43  93 CALM      29.81R
HIBBING        CLOUDY    39  39 100 CALM      29.81R
EVELETH          N/A     42  41  95 CALM      29.83R FOG
DULUTH HARBOR  CLEAR     50  46  87 S8        29.82R
TWO HARBORS    CLOUDY    55  48  76 NW3       29.78R
SILVER BAY     PTCLDY    41  41 100 CALM      29.78R FOG
GRAND MARAIS     N/A     42  42 100 CALM      29.78F
G MARAIS ARPRT CLEAR     43  39  87 CALM      29.80S
$$
MNZ029>031-032-039>041-046>048-054>057-064-271100-
   West Central Minnesota

CITY           SKY/WX    TMP DP  RH WIND       PRES   REMARKS
FERGUS FALLS   CLOUDY    52  45  76 S5        29.85S
WHEATON        MOCLDY    52  43  71 S3        29.87F
MORRIS         CLOUDY    52  46  82 CALM      29.86F
ALEXANDRIA     PTCLDY    49  45  86 SW7       29.88F
ELBOW LAKE     FAIR      49  45  85 CALM      29.87F
WADENA         CLOUDY    48  43  81 SW5       29.85S
GLENWOOD       CLOUDY    48  45  87 SW6       29.88F
APPLETON       CLOUDY    52  46  82 SW3       29.88S
BENSON         PTCLDY    48  45  87 CALM      29.90S
ORTONVILLE     CLOUDY    52  45  76 CALM      29.87F
MADISON        PTCLDY    52  46  82 CALM      29.89S
WILLMAR        FAIR      48  45  87 CALM      29.89F
$$
MNZ033>034-036-042>043-049>051-058-059-271100-
   Central Minnesota

CITY           SKY/WX    TMP DP  RH WIND       PRES   REMARKS
ST CLOUD       PTCLDY    46  45  96 CALM      29.87R
SAUK CENTRE    FAIR      47  44  88 CALM      29.88F
PAYNESVILLE    PTCLDY    46  46 100 CALM      29.88F
AITKIN         PTCLDY    43  41  93 SW3       29.83R
PINE RIVER     CLOUDY    46  45  93 CALM      29.88S
BRAINERD       PTCLDY    45  43  93 S3        29.86R
STAPLES        MOCLDY    48  43  81 W5        29.86R
LONG PRAIRIE   FAIR      45  43  93 S3        29.88S
LITTLE FALLS   CLOUDY    43  43 100 CALM      29.87R
LITCHFIELD     CLEAR     55  48  76 CALM      29.88S
BUFFALO        CLEAR     52  45  78 CALM      29.88S
MAPLE LAKE     CLEAR     49  47  92 CALM      29.87F
HUTCHINSON     MOCLDY    52  48  87 CALM      29.89S
$$
MNZ037-044-045-052-053-271100-
   East Central Minnesota

CITY           SKY/WX    TMP DP  RH WIND       PRES   REMARKS
PRINCETON      CLEAR     45  45 100 CALM      29.87R
MORA           CLEAR     45  43  93 CALM      29.87R
CAMBRIDGE      CLEAR     52  45  76 CALM      29.85R
RUSH CITY      PTCLDY    46  45  93 CALM      29.86R
MOOSE LAKE     CLEAR     43  41  93 CALM      29.82S
HINCKLEY       FAIR      45  45 100 CALM      29.84S
CLOQUET        CLEAR     46  43  87 W6        29.83R
MCGREGOR       CLEAR     46  45  93 CALM      29.84S
$$
MNZ071>073-080-081-089-090-097-098-271100-
   Southwest Minnesota

CITY           SKY/WX    TMP DP  RH WIND       PRES   REMARKS
MONTEVIDEO     CLOUDY    54  46  76 W6        29.88S
CANBY          CLOUDY    54  47  80 CALM      29.90S
MARSHALL       CLOUDY    54  48  80 SW5       29.89F
REDWOOD FALLS  CLOUDY    53  46  77 CALM      29.88S
OLIVIA         CLOUDY    52  46  82 W3        29.88S
PIPESTONE      CLOUDY    55  43  62 CALM      29.91S
WINDOM         PTCLDY    48  45  87 CALM      29.90S
WORTHINGTON    PTCLDY    48  43  82 CALM      29.91S
JACKSON        PTCLDY    50  45  81 CALM      29.91S
TRACY          MOCLDY    56  48  75 SW5       29.90S
SLAYTON        CLOUDY    50  46  87 CALM      29.92S
$$
MNZ065>067-074>077-082>085-091>093-271100-
   South Central Minnesota

CITY           SKY/WX    TMP DP  RH WIND       PRES   REMARKS
MANKATO        CLEAR     54  47  77 CALM      29.89F
NEW ULM        CLEAR     50  45  81 CALM      29.88F
ST JAMES       CLEAR     52  46  82 CALM      29.90S
FAIRMONT       CLEAR     52  45  77 CALM      29.90S
GLENCOE        CLOUDY    54  50  89 CALM      29.87S
FARIBAULT      PTCLDY    50  48  93 CALM      29.88F
OWATONNA       CLEAR     50  46  87 CALM      29.89S
WASECA         CLEAR     48  45  87 CALM      29.90F
ALBERT LEA     CLEAR     54  50  87 CALM      29.89S
$$
MNZ078>079-086>088-094>096-271100-
   Southeast Minnesota

CITY           SKY/WX    TMP DP  RH WIND       PRES   REMARKS
ROCHESTER      CLEAR     52  48  86 W8        29.89S
RED WING       CLEAR     52  48  87 CALM      29.86S
STANTON        CLEAR     50  47  90 CALM      29.86F
DODGE CENTER   CLEAR     52  46  82 W3        29.89S
WINONA         CLEAR     55  54  94 CALM      29.88R
AUSTIN         CLEAR     50  48  93 CALM      29.88F
PRESTON        CLEAR     55  53  94 SW5       29.89S
$$
ABBREVIATIONS USED IN REMARKS
   TC - TEMPERATURES IN CELSIUS
  WCI - WIND CHILL INDEX
   HX - HEAT INDEX
  VSB - VISIBILITY
$$




USA.gov is the U.S. government's official web portal to all federal, state and local government web resources and services.